STARLINK-3156, 49458

Orbit data source: Space-Track

STARLINK-3156, 49458 is a payload satellite owned by SpaceX/Seattle (US) in LEO that was launched on Sat, 13 Nov 2021 UTC via an FALCON 9 launch vehicle from the Air Force Eastern Test Range (AFETR). Payload-class satellites include a variety of spacecraft equipped with specific instruments for various scientific and technological missions. These include communications satellites like Starlink; space stations such as the ISS; scientific satellites like the Hubble; Earth observation satellites from companies like Planet Labs, Umbra, and HawkEye 360; GPS; miniature CubeSats for education and research; and military/defense satellites.

Loading next visibility...
Identifier
49458, 2021-104BC
Orbit
LEO
Country
Flag of USUS
Related business
Manufacturer
SpaceX/Seattle
Mission
Operational Commercial Communications
Bus & Motor
STARLINK, Unknown motor
Mass
290 kg wet, ~270 kg dry
Launch date (UTC)
2021-11-13 (5 years ago)
Launch vehicle
FALCON 9
Launch site
Air Force Eastern Test Range (AFETR)
Object type
Payload
Rocket body
Debris
Shape & HBR
Box + 1 Pan, 10.1 m
Radar Cross Section
13.562 m², Large (>1 m²)

Expand to show TLE details & history
Last TLE update: 1 week ago

TLE from 1 week ago
0 STARLINK-3156
1 49458U 21104BC  26155.00002315  .00044318  00000-0  27865-2 0  9998
2 49458  53.1774 191.6356 0001341  90.7172  40.9004 15.08822928  5811
Epoch: 2026-06-04T00:00Z
TLE epoch observation values (Epoch: 2026-06-04T00:00:02.000Z)
Latitude
36.87047°
Longitude
85.22697°
Altitude
542.043 km
Speed
7.596 km/s
True Right ascension
22h 30m 44s
True Declination
36° 42' 01"
Sunlit
Object was in daylight at epoch
Visualization orbit readout
Latitude
Unknown
Longitude
Unknown
Altitude
Unknown
Speed
Unknown
Apparent Right ascension
Unknown
Apparent Declination
Unknown
Sunlit
N/A
Visualization observer readout
Local Sidereal Time
13:25:31
Azimuth
Unknown
Elevation
Unknown
Doppler factor
Unknown
Orbital elements
Apogee altitude
540.975 km
Perigee altitude
539.119 km
Semi-major axis
6,918.184 km
Eccentricity
0.00013
Inclination
53.1774°
RAAN
191.6356°
Arg. of periapsis
90.7172°
True anomaly
40.91046°
Mean anomaly
40.9004°
Eccentric anomaly
40.90543°
Mean motion
3.77186 °/min
Orbital period
95.44 mins
BSTAR
0.0027865
Loading maneuver chart data...
Computing Atmospheric mass density...
Loading historical data...
Loading historical data...
Loading historical data...
Loading historical data...
Loading historical data...
Loading historical data...
Loading historical data...

Documentation

Showing up to 5 results
|